Starlink 35708

operational
NORAD ID: 66277 Int'l Des: 2025-247 Owner: SPXS Country: US Constellation: starlink
NOTLE

关于 Starlink 35708

正在加载描述...

实时位置

正在加载3D地球...

即将过境

高度历史

Altitude vs Time

uPlot chart will show altitude changes over time

两行轨道根数

1 66277U 25247N 25351.87857659 .00034114 00000-0 85850-3 0 9991
2 66277 53.1581 213.1734 0001374 103.2761 256.8397 15.39638674 8537
Epoch: Dec 17, 2025 • Age: 15 hours

当前状态

高度 459.3 km
速度 7.64 km/s
星下点 -36.64°S, 155.13°E
发射日期 Oct 31, 2025
运行时间 0.1 years
类型 internet

技术详情

分类 Payload
质量 575.00 kg
干质量 530.00 kg
总质量 575.00 kg
长度 0.30 m
直径 4.10 m
跨度 29.00 m
形状 Box + pan
制造商 SPXS
平台类型 Starlink V2MO
阶段状态 In Orbit
所有者/国家 SPXS/US

大型星座

Loading constellations...